{"data":{"norad_id":56793,"epoch":"2026-09-20T06:01:28.566048Z","epoch_age_seconds":136409,"freshness":"FRESH","line1":"1 56793U 23078AC  26263.25102507  .00000777  00000+0  72951-4 0  9999","line2":"2 56793  69.9994 213.8949 0003234 262.7607  97.3184 14.98327669181823","mean_motion":14.98327669,"eccentricity":0.0003234,"inclination_deg":69.9994,"raan_deg":213.8949,"arg_perigee_deg":262.7607,"mean_anomaly_deg":97.3184,"bstar":7.2951e-5,"rev_number":18182,"period_min":96.107148642664,"perigee_km":569.81540466684,"apogee_km":574.31079409112,"semimajor_km":6950.200099379,"source":"CELESTRAK","updated_at":"2026-09-21T09:00:33.508440Z"}}